ROMMA est une association bénévole à but non lucratif. Votre soutien est indispensable : ADHERER à ROMMA ou FAIRE un DON

Val-d'Isère - (73, Savoie)

Haute-Maurienne (1850 m)   Longitude: 6° 58' 52'' E   Latitude: 45° 26' 53'' N Station partenaire n°93
 

Détail journalier du     <<     >>

Température Precipitation Humidité Vent Dir Rafale Dir. rafale Ensol.
Heure (°C) (mm) (%) (km/h) (km/h) (min)
01:00 1.60727ESE21ESE0
02:00 1.70718E26E0
03:00 1.60707E31O0
04:00 0.80828NE42NNO0
05:00 -4.209127OSO50O0
06:00 -4.309311O35OSO0
07:00 -3.60916N18ESE0
08:00 -2.60886ESE18ESE0
09:00 -4.009319OSO45OSO0
10:00 -3.308915OSO37OSO0
11:00 -3.209010OSO21O0
12:00 -3.509211O21O0
13:00 -2.80.28815OSO27OSO30
14:00 -2.71.48616OSO29OSO30
15:00 -2.30.67918OSO32O60
16:00 -3.10.28315OSO32OSO60
17:00 -2.807810SSO32O60
18:00 -3.10787ENE23S30
19:00 -3.90818SO31O0
20:00 -4.207410OSO27O30
21:00 -4.508010O26O0
22:00 -4.90849O24O0
23:00 -5.00816SSE19OSO0
minuit -5.90794ENE13ENE0

Graphique du 04-04-2019

 

Serveur OMMA